OE-11061 Weather Reports


time (UTC)temp
F
wind
direction
speed
knots
gust
knots
rain 1hr
in
rain 24hr
in
rain mn
in
humidity
%
barometer
mb
20260903055521 60 68 1.7 1.7 0.00 0.00 0.00 83 1022.5
20260903054134 59 60 1.7 3.5 0.00 0.00 0.00 84 1022.6
20260903053521 58 55 1.7 2.6 0.00 0.00 0.00 85 1022.6
20260903052522 57 74 0.9 1.7 0.00 0.00 0.00 86 1022.7
20260903051135 57 81 0.9 1.7 0.00 0.00 0.00 86 1022.7
20260903050521 57 72 0.9 1.7 0.00 0.00 0.00 86 1022.6
20260903045522 57 78 0.9 1.7 0.00 0.00 0.00 86 1022.5
20260903044134 57 102 0.0 0.9 0.00 0.00 0.00 86 1022.5
20260903043521 57 346 0.0 0.9 0.00 0.00 0.00 85 1022.5
20260903042522 58 255 0.9 2.6 0.00 0.00 0.00 84 1022.4
20260903041134 58 304 0.0 1.7 0.00 0.00 0.00 83 1022.4
20260903040522 59 151 0.9 2.6 0.00 0.00 0.00 83 1022.1
20260903035522 59 165 0.9 3.5 0.00 0.00 0.00 85 1022.1
20260903034521 59 133 0.9 2.6 0.00 0.00 0.00 84 1022.1
20260903033522 59 170 1.7 3.5 0.00 0.00 0.00 86 1022.0
20260903032522 59 120 1.7 2.6 0.00 0.00 0.00 87 1022.1
20260903031135 60 103 1.7 2.6 0.00 0.00 0.00 88 1022.0
20260903030522 60 113 0.9 2.6 0.00 0.00 0.00 88 1022.0
20260903025522 60 115 0.9 2.6 0.00 0.00 0.00 90 1022.0
20260903024522 60 197 0.9 2.6 0.00 0.00 0.00 90 1021.9
20260903023522 60 143 0.9 1.7 0.00 0.00 0.00 89 1021.9
20260903022522 60 124 0.9 1.7 0.00 0.00 0.00 89 1021.7
20260903021134 60 118 0.9 1.7 0.00 0.00 0.00 89 1021.6
20260903020522 61 122 0.0 2.6 0.00 0.00 0.00 89 1021.7
20260903015522 61 246 0.0 1.7 0.00 0.00 0.00 87 1021.6
20260903014134 61 360 0.0 1.7 0.00 0.00 0.00 87 1021.6
20260903013521 61 107 0.9 1.7 0.00 0.00 0.00 87 1021.6
20260903012521 60 95 0.9 1.7 0.00 0.00 0.00 88 1021.5
20260903011135 60 102 0.9 2.6 0.00 0.00 0.00 88 1021.4
20260903010522 61 129 0.0 1.7 0.00 0.00 0.00 88 1021.4
20260903005522 61 344 0.9 2.6 0.00 0.00 0.00 87 1021.5
20260903004135 61 321 1.7 2.6 0.00 0.00 0.00 87 1021.3
20260903003522 60 280 0.0 1.7 0.00 0.00 0.00 88 1021.3
20260903002522 61 122 0.9 1.7 0.00 0.00 0.00 88 1021.3
20260903001534 61 360 0.0 2.6 0.00 0.00 0.00 87 1021.3
20260903000521 60 108 0.9 2.6 0.00 0.00 0.00 88 1021.3
20260902235521 60 119 0.9 2.6 0.00 0.00 0.00 88 1021.4
20260902234135 60 98 0.9 3.5 0.00 0.00 0.00 87 1021.4
20260902233521 60 102 2.6 3.5 0.00 0.00 0.00 89 1021.4
20260902232521 60 104 1.7 2.6 0.00 0.00 0.00 90 1021.5
20260902231522 59 84 1.7 2.6 0.00 0.00 0.00 89 1021.5
20260902230521 60 8 0.9 1.7 0.00 0.00 0.00 88 1021.4
20260902225522 60 223 2.6 3.5 0.00 0.00 0.00 88 1021.4
20260902224135 61 81 0.9 3.5 0.00 0.00 0.00 86 1021.3
20260902223522 60 71 3.5 4.3 0.00 0.00 0.00 88 1021.3
20260902222522 61 81 2.6 4.3 0.00 0.00 0.00 87 1021.3
20260902221135 61 107 1.7 2.6 0.00 0.00 0.00 86 1021.2
20260902220521 61 140 1.7 3.5 0.00 0.00 0.00 85 1021.1
20260902215522 62 129 1.7 2.6 0.00 0.00 0.00 84 1021.0
20260902214135 62 141 0.9 2.6 0.00 0.00 0.00 83 1020.9
20260902213521 62 129 0.0 1.7 0.00 0.00 0.00 84 1020.9
20260902211135 62 33 0.9 1.7 0.00 0.00 0.00 80 1020.8
20260902210522 62 47 1.7 2.6 0.00 0.00 0.00 79 1020.8
20260902205522 62 83 1.7 2.6 0.00 0.00 0.00 82 1020.7
20260902204136 62 92 1.7 2.6 0.00 0.00 0.00 80 1020.6
20260902203521 62 107 2.6 3.5 0.00 0.00 0.00 81 1020.7
20260902202522 63 107 0.9 1.7 0.00 0.00 0.00 79 1020.8
20260902201135 63 205 0.0 1.7 0.00 0.00 0.00 76 1020.7
20260902200522 64 231 0.0 2.6 0.00 0.00 0.00 76 1020.7
20260902195522 65 349 0.9 1.7 0.00 0.00 0.00 70 1020.6
20260902194135 65 39 0.0 0.9 0.00 0.00 0.00 71 1020.4
20260902193522 66 76 1.7 4.3 0.00 0.00 0.00 70 1020.2
20260902192521 66 60 0.0 3.5 0.00 0.00 0.00 69 1020.1
20260902191135 67 26 0.9 2.6 0.00 0.00 0.00 67 1020.1
20260902190521 67 68 1.7 3.5 0.00 0.00 0.00 67 1020.0
20260902185522 66 83 2.6 6.1 0.00 0.00 0.00 72 1019.9
20260902184135 66 64 4.3 6.1 0.00 0.00 0.00 75 1019.8
20260902183522 67 59 0.9 5.2 0.00 0.00 0.00 71 1019.6
20260902182522 68 38 0.9 2.6 0.00 0.00 0.00 67 1019.4
20260902181135 68 55 1.7 3.5 0.00 0.00 0.00 67 1019.3
20260902180522 69 63 2.6 4.3 0.00 0.00 0.00 67 1019.2
20260902175522 69 59 1.7 3.5 0.00 0.00 0.00 66 1019.0
20260902174135 70 50 1.7 3.5 0.00 0.00 0.00 66 1018.7
20260902173521 70 37 1.7 2.6 0.00 0.00 0.00 65 1018.9
20260902172522 71 55 2.6 4.3 0.00 0.00 0.00 64 1018.8
20260902171135 71 55 2.6 4.3 0.00 0.00 0.00 64 1018.6
20260902170522 73 31 1.7 3.5 0.00 0.00 0.00 60 1018.5
20260902165522 73 353 1.7 6.1 0.00 0.00 0.00 52 1018.4
20260902164135 74 339 2.6 5.2 0.00 0.00 0.00 51 1018.6
20260902163522 74 310 1.7 4.3 0.00 0.00 0.00 51 1018.6
20260902162522 74 290 1.7 3.5 0.00 0.00 0.00 50 1018.4
20260902161135 74 291 2.6 4.3 0.00 0.00 0.00 50 1018.4
20260902160521 75 290 2.6 6.1 0.00 0.00 0.00 53 1018.3
20260902155522 76 300 1.7 4.3 0.00 0.00 0.00 48 1018.2
20260902154135 76 19 0.9 3.5 0.00 0.00 0.00 44 1018.4
20260902153522 76 289 2.6 7.0 0.00 0.00 0.00 48 1018.4
20260902152521 76 302 3.5 5.2 0.00 0.00 0.00 48 1018.5
20260902151135 76 332 2.6 7.8 0.00 0.00 0.00 49 1018.5
20260902150522 76 315 3.5 6.1 0.00 0.00 0.00 46 1018.5
20260902145522 77 304 3.5 9.6 0.00 0.00 0.00 45 1018.5
20260902144135 77 332 4.3 8.7 0.00 0.00 0.00 44 1018.5
20260902143521 78 314 4.3 8.7 0.00 0.00 0.00 43 1018.6
20260902142522 78 293 7.0 11.3 0.00 0.00 0.00 45 1018.5
20260902141135 79 280 4.3 9.6 0.00 0.00 0.00 45 1018.5
20260902140522 78 268 2.6 7.0 0.00 0.00 0.00 44 1018.6
20260902135522 78 301 3.5 8.7 0.00 0.00 0.00 46 1018.7
20260902134133 78 287 3.5 8.7 0.00 0.00 0.00 44 1018.7
20260902133522 77 314 3.5 9.6 0.00 0.00 0.00 44 1018.8
20260902132522 77 340 2.6 7.8 0.00 0.00 0.00 44 1018.8
20260902131135 78 331 2.6 7.0 0.00 0.00 0.00 47 1018.9
20260902130522 77 273 2.6 5.2 0.00 0.00 0.00 51 1019.0
20260902125522 76 284 3.5 7.8 0.00 0.00 0.00 47 1019.3
20260902124134 77 309 2.6 6.1 0.00 0.00 0.00 50 1019.2
20260902123522 76 245 1.7 5.2 0.00 0.00 0.00 48 1019.2
20260902122522 75 95 1.7 3.5 0.00 0.00 0.00 48 1019.5
20260902121135 75 308 0.9 5.2 0.00 0.00 0.00 48 1019.6
20260902120521 75 271 1.7 5.2 0.00 0.00 0.00 48 1019.6
20260902115521 75 340 0.9 4.3 0.00 0.00 0.00 52 1019.7
20260902114135 74 59 0.9 3.5 0.00 0.00 0.00 48 1019.8
20260902113522 75 281 0.9 3.5 0.00 0.00 0.00 52 1019.8
20260902112522 75 267 1.7 3.5 0.00 0.00 0.00 51 1019.9
20260902111135 74 267 1.7 4.3 0.00 0.00 0.00 50 1019.9
20260902110522 74 276 1.7 4.3 0.00 0.00 0.00 51 1020.1
20260902105521 75 219 0.9 6.1 0.00 0.00 0.00 51 1020.2
20260902104135 74 232 1.7 4.3 0.00 0.00 0.00 54 1020.3
20260902103522 73 182 1.7 4.3 0.00 0.00 0.00 53 1020.6
20260902102521 73 156 1.7 5.2 0.00 0.00 0.00 52 1020.4
20260902101135 74 140 1.7 5.2 0.00 0.00 0.00 51 1020.5
20260902100522 73 254 1.7 4.3 0.00 0.00 0.00 54 1020.5
20260902095522 74 272 2.6 5.2 0.00 0.00 0.00 60 1020.6
20260902094135 72 253 2.6 6.1 0.00 0.00 0.00 61 1020.6
20260902093522 73 229 2.6 6.1 0.00 0.00 0.00 60 1020.7
20260902092522 72 235 0.9 5.2 0.00 0.00 0.00 63 1020.7
20260902091134 72 144 0.9 4.3 0.00 0.00 0.00 62 1020.8
20260902090522 71 139 0.0 3.5 0.00 0.00 0.00 61 1021.0
20260902084134 69 225 2.6 4.3 0.00 0.00 0.00 68 1021.3
20260902083522 69 209 1.7 3.5 0.00 0.00 0.00 66 1021.4
20260902082522 68 234 1.7 3.5 0.00 0.00 0.00 65 1021.4
20260902081134 68 238 1.7 4.3 0.00 0.00 0.00 70 1021.4
20260902080522 67 220 1.7 3.5 0.00 0.00 0.00 72 1021.5
20260902075522 67 246 1.7 3.5 0.00 0.00 0.00 68 1021.5
20260902074135 66 154 1.7 4.3 0.00 0.00 0.00 69 1021.6
20260902073521 65 143 2.6 5.2 0.00 0.00 0.00 72 1021.8
20260902072522 64 145 3.5 7.0 0.00 0.00 0.00 73 1021.6
20260902071335 63 137 3.5 5.2 0.00 0.00 0.00 75 1021.7
20260902070521 62 134 4.3 7.8 0.00 0.00 0.00 79 1021.8
20260902065521 60 126 0.9 3.5 0.00 0.00 0.00 82 1022.0
20260902064135 59 161 0.0 2.6 0.00 0.00 0.00 88 1022.1
20260902062522 56 219 0.9 1.7 0.00 0.00 0.00 91 1022.4
20260902061135 56 357 0.9 1.7 0.00 0.00 0.00 92 1022.4
20260902060522 55 360 0.9 1.7 0.00 0.00 0.00 93 1022.5